Time,TemperatureF,DewpointF,PressureIn,WindDirection,WindDirectionDegrees,WindSpeedMPH,WindSpeedGustMPH,Humidity,HourlyPrecipIn,Conditions,Clouds,dailyrainin,SolarRadiationWatts/m^2,SoftwareType,DateUTC
2013-10-18 00:05:00,52.0,51.0,-100.00,SSW,205,2.0,12.0,98,0.03,,,0.34,0.000000,,2013-10-18 04:05:00,
2013-10-18 00:14:00,52.0,51.0,-100.00,SSW,205,2.0,12.0,98,0.03,,,0.34,0.000000,,2013-10-18 04:14:00,
2013-10-18 00:24:00,52.0,51.0,-100.00,SSW,205,2.0,12.0,98,0.03,,,0.34,0.000000,,2013-10-18 04:24:00,
2013-10-18 00:54:00,51.0,50.0,-100.00,SW,221,6.0,12.0,95,0.01,,,0.35,0.000000,,2013-10-18 04:54:00,
2013-10-18 01:03:00,51.0,50.0,-100.00,SW,221,6.0,12.0,95,0.01,,,0.35,0.000000,,2013-10-18 05:03:00,
2013-10-18 01:13:00,51.0,50.0,-100.00,SW,221,6.0,12.0,95,0.01,,,0.35,0.000000,,2013-10-18 05:13:00,
2013-10-18 01:23:00,51.0,50.0,-100.00,SW,221,6.0,12.0,95,0.01,,,0.35,0.000000,,2013-10-18 05:23:00,
2013-10-18 01:52:00,50.0,47.0,-100.00,WSW,239,6.0,15.0,91,0.00,,,0.35,0.000000,,2013-10-18 05:52:00,
2013-10-18 02:02:00,50.0,47.0,-100.00,WSW,239,6.0,15.0,91,0.00,,,0.35,0.000000,,2013-10-18 06:02:00,
2013-10-18 02:12:00,50.0,47.0,-100.00,WSW,239,6.0,15.0,91,0.00,,,0.35,0.000000,,2013-10-18 06:12:00,
2013-10-18 02:22:00,50.0,47.0,-100.00,WSW,239,6.0,15.0,91,0.00,,,0.35,0.000000,,2013-10-18 06:22:00,
2013-10-18 02:52:00,49.0,46.0,-100.00,WSW,252,6.0,12.0,91,0.00,,,0.35,0.000000,,2013-10-18 06:52:00,
2013-10-18 03:02:00,49.0,46.0,-100.00,WSW,252,6.0,12.0,91,0.00,,,0.35,0.000000,,2013-10-18 07:02:00,
2013-10-18 03:12:00,49.0,46.0,-100.00,WSW,252,6.0,12.0,91,0.00,,,0.35,0.000000,,2013-10-18 07:12:00,
2013-10-18 03:22:00,49.0,46.0,-100.00,WSW,252,6.0,12.0,91,0.00,,,0.35,0.000000,,2013-10-18 07:22:00,
2013-10-18 03:52:00,49.0,46.0,-100.00,SW,236,6.0,13.0,90,0.00,,,0.35,0.000000,,2013-10-18 07:52:00,
2013-10-18 04:02:00,49.0,46.0,-100.00,SW,236,6.0,13.0,90,0.00,,,0.35,0.000000,,2013-10-18 08:02:00,
2013-10-18 04:11:00,49.0,46.0,-100.00,SW,236,6.0,13.0,90,0.00,,,0.35,0.000000,,2013-10-18 08:11:00,
2013-10-18 04:22:00,49.0,46.0,-100.00,SW,236,6.0,13.0,90,0.00,,,0.35,0.000000,,2013-10-18 08:22:00,
2013-10-18 04:52:00,49.0,46.0,-100.00,WSW,241,6.0,12.0,91,0.00,,,0.35,0.000000,,2013-10-18 08:52:00,
2013-10-18 05:02:00,49.0,46.0,-100.00,WSW,241,6.0,12.0,91,0.00,,,0.35,0.000000,,2013-10-18 09:02:00,
2013-10-18 05:12:00,49.0,46.0,-100.00,WSW,241,6.0,12.0,91,0.00,,,0.35,0.000000,,2013-10-18 09:12:00,
2013-10-18 05:22:00,49.0,46.0,-100.00,WSW,241,6.0,12.0,91,0.00,,,0.35,0.000000,,2013-10-18 09:22:00,
2013-10-18 05:53:00,48.0,45.0,-100.00,WSW,237,7.0,12.0,91,0.00,,,0.35,0.000000,,2013-10-18 09:53:00,
2013-10-18 06:03:00,48.0,45.0,-100.00,WSW,237,7.0,12.0,91,0.00,,,0.35,0.000000,,2013-10-18 10:03:00,
2013-10-18 06:12:00,48.0,45.0,-100.00,WSW,237,7.0,12.0,91,0.00,,,0.35,0.000000,,2013-10-18 10:12:00,
2013-10-18 06:23:00,48.0,45.0,-100.00,WSW,237,7.0,12.0,91,0.00,,,0.35,0.000000,,2013-10-18 10:23:00,
2013-10-18 06:53:00,49.0,46.0,-100.00,WSW,247,9.0,17.0,88,0.00,,,0.35,0.000000,,2013-10-18 10:53:00,
2013-10-18 07:03:00,49.0,46.0,-100.00,WSW,247,9.0,17.0,88,0.00,,,0.35,0.000000,,2013-10-18 11:03:00,
2013-10-18 07:12:00,49.0,46.0,-100.00,WSW,247,9.0,17.0,88,0.00,,,0.35,0.000000,,2013-10-18 11:12:00,
2013-10-18 07:22:00,49.0,46.0,-100.00,WSW,247,9.0,17.0,88,0.00,,,0.35,0.000000,,2013-10-18 11:22:00,
2013-10-18 07:52:00,49.0,45.0,-100.00,WSW,252,10.0,19.0,86,0.00,,,0.35,0.000000,,2013-10-18 11:52:00,
2013-10-18 08:02:00,49.0,45.0,-100.00,WSW,252,10.0,19.0,86,0.00,,,0.35,0.000000,,2013-10-18 12:02:00,
2013-10-18 08:12:00,49.0,45.0,-100.00,WSW,252,10.0,19.0,86,0.00,,,0.35,0.000000,,2013-10-18 12:12:00,
2013-10-18 08:22:00,49.0,45.0,-100.00,WSW,252,10.0,19.0,86,0.00,,,0.35,0.000000,,2013-10-18 12:22:00,
2013-10-18 08:52:00,48.0,44.0,-100.00,WSW,244,8.0,21.0,86,0.00,,,0.35,12.000000,,2013-10-18 12:52:00,
2013-10-18 09:02:00,48.0,44.0,-100.00,WSW,244,8.0,21.0,86,0.00,,,0.35,12.000000,,2013-10-18 13:02:00,
2013-10-18 09:11:00,48.0,44.0,-100.00,WSW,244,8.0,21.0,86,0.00,,,0.35,12.000000,,2013-10-18 13:11:00,
2013-10-18 09:22:00,48.0,44.0,-100.00,WSW,244,8.0,21.0,86,0.00,,,0.35,12.000000,,2013-10-18 13:22:00,
2013-10-18 09:52:00,49.0,43.0,-100.00,WSW,255,9.0,20.0,79,0.00,,,0.35,101.000000,,2013-10-18 13:52:00,
2013-10-18 10:02:00,49.0,43.0,-100.00,WSW,255,9.0,20.0,79,0.00,,,0.35,101.000000,,2013-10-18 14:02:00,
2013-10-18 10:11:00,49.0,43.0,-100.00,WSW,255,9.0,20.0,79,0.00,,,0.35,101.000000,,2013-10-18 14:11:00,
2013-10-18 10:22:00,49.0,43.0,-100.00,WSW,255,9.0,20.0,79,0.00,,,0.35,101.000000,,2013-10-18 14:22:00,
2013-10-18 10:52:00,52.0,40.0,-100.00,West,266,12.0,22.0,64,0.00,,,0.35,315.000000,,2013-10-18 14:52:00,
2013-10-18 11:02:00,52.0,40.0,-100.00,West,266,12.0,22.0,64,0.00,,,0.35,315.000000,,2013-10-18 15:02:00,
2013-10-18 11:11:00,52.0,40.0,-100.00,West,266,12.0,22.0,64,0.00,,,0.35,315.000000,,2013-10-18 15:11:00,
2013-10-18 11:22:00,52.0,40.0,-100.00,West,266,12.0,22.0,64,0.00,,,0.35,315.000000,,2013-10-18 15:22:00,
2013-10-18 11:54:00,55.0,37.0,-100.00,West,266,13.0,27.0,50,0.00,,,0.35,412.000000,,2013-10-18 15:54:00,
2013-10-18 12:04:00,55.0,37.0,-100.00,West,266,13.0,27.0,50,0.00,,,0.35,412.000000,,2013-10-18 16:04:00,
2013-10-18 12:13:00,55.0,37.0,-100.00,West,266,13.0,27.0,50,0.00,,,0.35,412.000000,,2013-10-18 16:13:00,
2013-10-18 12:24:00,55.0,37.0,-100.00,West,266,13.0,27.0,50,0.00,,,0.35,412.000000,,2013-10-18 16:24:00,
2013-10-18 12:53:00,56.0,37.0,-100.00,West,267,14.0,26.0,49,0.00,,,0.35,485.000000,,2013-10-18 16:53:00,
2013-10-18 13:03:00,56.0,37.0,-100.00,West,267,14.0,26.0,49,0.00,,,0.35,485.000000,,2013-10-18 17:03:00,
2013-10-18 13:12:00,56.0,37.0,-100.00,West,267,14.0,26.0,49,0.00,,,0.35,485.000000,,2013-10-18 17:12:00,
2013-10-18 13:22:00,56.0,37.0,-100.00,West,267,14.0,26.0,49,0.00,,,0.35,485.000000,,2013-10-18 17:22:00,
2013-10-18 13:52:00,58.0,37.0,-100.00,West,267,14.0,23.0,45,0.00,,,0.35,546.000000,,2013-10-18 17:52:00,
2013-10-18 14:02:00,58.0,37.0,-100.00,West,267,14.0,23.0,45,0.00,,,0.35,546.000000,,2013-10-18 18:02:00,
2013-10-18 14:12:00,58.0,37.0,-100.00,West,267,14.0,23.0,45,0.00,,,0.35,546.000000,,2013-10-18 18:12:00,
2013-10-18 14:22:00,58.0,37.0,-100.00,West,267,14.0,23.0,45,0.00,,,0.35,546.000000,,2013-10-18 18:22:00,
2013-10-18 14:52:00,58.0,36.0,-100.00,West,261,12.0,25.0,43,0.00,,,0.35,470.000000,,2013-10-18 18:52:00,
2013-10-18 15:01:00,58.0,36.0,-100.00,West,261,12.0,25.0,43,0.00,,,0.35,470.000000,,2013-10-18 19:01:00,
2013-10-18 15:12:00,58.0,36.0,-100.00,West,261,12.0,25.0,43,0.00,,,0.35,470.000000,,2013-10-18 19:12:00,
2013-10-18 15:22:00,58.0,36.0,-100.00,West,261,12.0,25.0,43,0.00,,,0.35,470.000000,,2013-10-18 19:22:00,
2013-10-18 15:52:00,57.0,37.0,-100.00,West,269,10.0,18.0,47,0.00,,,0.35,300.000000,,2013-10-18 19:52:00,
2013-10-18 16:02:00,57.0,37.0,-100.00,West,269,10.0,18.0,47,0.00,,,0.35,300.000000,,2013-10-18 20:02:00,
2013-10-18 16:11:00,57.0,37.0,-100.00,West,269,10.0,18.0,47,0.00,,,0.35,300.000000,,2013-10-18 20:11:00,
2013-10-18 16:22:00,57.0,37.0,-100.00,West,269,10.0,18.0,47,0.00,,,0.35,300.000000,,2013-10-18 20:22:00,
2013-10-18 16:52:00,60.0,37.0,-100.00,WSW,258,10.0,20.0,43,0.00,,,0.35,347.000000,,2013-10-18 20:52:00,
2013-10-18 17:02:00,60.0,37.0,-100.00,WSW,258,10.0,20.0,43,0.00,,,0.35,347.000000,,2013-10-18 21:02:00,
2013-10-18 17:12:00,60.0,37.0,-100.00,WSW,258,10.0,20.0,43,0.00,,,0.35,347.000000,,2013-10-18 21:12:00,
2013-10-18 17:22:00,60.0,37.0,-100.00,WSW,258,10.0,20.0,43,0.00,,,0.35,347.000000,,2013-10-18 21:22:00,
2013-10-18 17:54:00,58.0,40.0,-100.00,SW,236,6.0,17.0,51,0.00,,,0.35,184.000000,,2013-10-18 21:54:00,
2013-10-18 18:04:00,58.0,40.0,-100.00,SW,236,6.0,17.0,51,0.00,,,0.35,184.000000,,2013-10-18 22:04:00,
2013-10-18 18:13:00,58.0,40.0,-100.00,SW,236,6.0,17.0,51,0.00,,,0.35,184.000000,,2013-10-18 22:13:00,
2013-10-18 18:24:00,58.0,40.0,-100.00,SW,236,6.0,17.0,51,0.00,,,0.35,184.000000,,2013-10-18 22:24:00,
2013-10-18 18:54:00,56.0,45.0,-100.00,WSW,244,7.0,14.0,66,0.00,,,0.35,27.000000,,2013-10-18 22:54:00,
2013-10-18 19:03:00,56.0,45.0,-100.00,WSW,244,7.0,14.0,66,0.00,,,0.35,27.000000,,2013-10-18 23:03:00,
2013-10-18 19:13:00,56.0,45.0,-100.00,WSW,244,7.0,14.0,66,0.00,,,0.35,27.000000,,2013-10-18 23:13:00,
2013-10-18 19:23:00,56.0,45.0,-100.00,WSW,244,7.0,14.0,66,0.00,,,0.35,27.000000,,2013-10-18 23:23:00,
2013-10-18 19:53:00,54.0,44.0,-100.00,WSW,238,5.0,12.0,69,0.00,,,0.23,0.000000,,2013-10-18 23:53:00,
2013-10-18 20:02:00,54.0,44.0,-100.00,WSW,238,5.0,12.0,69,0.00,,,0.23,0.000000,,2013-10-19 00:02:00,
2013-10-18 20:12:00,54.0,44.0,-100.00,WSW,238,5.0,12.0,69,0.00,,,0.23,0.000000,,2013-10-19 00:12:00,
2013-10-18 20:22:00,54.0,44.0,-100.00,WSW,238,5.0,12.0,69,0.00,,,0.23,0.000000,,2013-10-19 00:22:00,
2013-10-18 20:52:00,54.0,46.0,-100.00,WSW,239,4.0,6.0,73,0.00,,,0.12,0.000000,,2013-10-19 00:52:00,
2013-10-18 21:02:00,54.0,46.0,-100.00,WSW,239,4.0,6.0,73,0.00,,,0.12,0.000000,,2013-10-19 01:02:00,
2013-10-18 21:12:00,54.0,46.0,-100.00,WSW,239,4.0,6.0,73,0.00,,,0.12,0.000000,,2013-10-19 01:12:00,
2013-10-18 21:22:00,54.0,46.0,-100.00,WSW,239,4.0,6.0,73,0.00,,,0.12,0.000000,,2013-10-19 01:22:00,
2013-10-18 21:53:00,53.0,45.0,-100.00,SSW,211,2.0,6.0,75,0.00,,,0.10,0.000000,,2013-10-19 01:53:00,
2013-10-18 22:02:00,53.0,45.0,-100.00,SSW,211,2.0,6.0,75,0.00,,,0.10,0.000000,,2013-10-19 02:02:00,
2013-10-18 22:12:00,53.0,45.0,-100.00,SSW,211,2.0,6.0,75,0.00,,,0.10,0.000000,,2013-10-19 02:12:00,
2013-10-18 22:22:00,53.0,45.0,-100.00,SSW,211,2.0,6.0,75,0.00,,,0.10,0.000000,,2013-10-19 02:22:00,
2013-10-18 22:52:00,52.0,43.0,-100.00,SSW,209,4.0,7.0,70,0.00,,,0.04,0.000000,,2013-10-19 02:52:00,
2013-10-18 23:03:00,52.0,43.0,-100.00,SSW,209,4.0,7.0,70,0.00,,,0.04,0.000000,,2013-10-19 03:03:00,
2013-10-18 23:12:00,52.0,43.0,-100.00,SSW,209,4.0,7.0,70,0.00,,,0.04,0.000000,,2013-10-19 03:12:00,
2013-10-18 23:23:00,52.0,43.0,-100.00,SSW,209,4.0,7.0,70,0.00,,,0.04,0.000000,,2013-10-19 03:23:00,
2013-10-18 23:55:00,51.0,41.0,-100.00,SSW,205,3.0,6.0,68,0.00,,,0.01,0.000000,,2013-10-19 03:55:00,